| time (UTC) | temp F | wind direction | speed MPH | gust MPH | rain 1hr in | rain 24hr in | rain mn in | humidity % | barometer mb |
| 20260906012821 | 79 | 186 | 1.0 | 1.0 | 0.00 | 0.00 | 0.00 | 92 | 1012.8 |
| 20260906012320 | 79 | 153 | 1.0 | 1.0 | 0.00 | 0.00 | 0.00 | 92 | 1012.8 |
| 20260906011815 | 79 | 203 | 0.0 | 2.0 | 0.00 | 0.00 | 0.00 | 92 | 1012.8 |
| 20260906011310 | 79 | 168 | 2.0 | 3.0 | 0.00 | 0.00 | 0.00 | 91 | 1012.8 |
| 20260906010806 | 79 | 204 | 1.0 | 2.0 | 0.00 | 0.00 | 0.00 | 91 | 1012.6 |
| 20260906010302 | 79 | 212 | 0.0 | 0.0 | 0.00 | 0.00 | 0.00 | 91 | 1012.6 |
| 20260906005757 | 80 | 230 | 0.0 | 0.0 | 0.00 | 0.00 | 0.00 | 91 | 1012.5 |
| 20260906005256 | 80 | 230 | 0.0 | 0.0 | 0.00 | 0.00 | 0.00 | 91 | 1012.6 |
| 20260906004754 | 80 | 183 | 0.0 | 1.0 | 0.00 | 0.00 | 0.00 | 90 | 1012.8 |
| 20260906004250 | 80 | 210 | 0.0 | 0.0 | 0.00 | 0.00 | 0.00 | 90 | 1012.9 |
| 20260906003749 | 80 | 182 | 0.0 | 1.0 | 0.00 | 0.00 | 0.00 | 90 | 1012.9 |
| 20260906003245 | 80 | 204 | 0.0 | 2.0 | 0.00 | 0.00 | 0.00 | 90 | 1013.0 |
| 20260906002740 | 80 | 186 | 1.0 | 1.0 | 0.00 | 0.00 | 0.00 | 89 | 1013.1 |
| 20260906002240 | 80 | 246 | 0.0 | 1.0 | 0.00 | 0.00 | 0.00 | 89 | 1013.3 |
| 20260906001736 | 80 | 210 | 0.0 | 1.0 | 0.00 | 0.00 | 0.00 | 88 | 1013.2 |
| 20260906001230 | 80 | 230 | 0.0 | 2.0 | 0.00 | 0.00 | 0.00 | 88 | 1013.2 |
| 20260906000726 | 81 | 224 | 0.0 | 4.0 | 0.00 | 0.00 | 0.00 | 87 | 1013.3 |
| 20260906000221 | 81 | 228 | 1.0 | 1.0 | 0.00 | 0.00 | 0.00 | 87 | 1013.3 |
| 20260905235721 | 81 | 235 | 1.0 | 2.0 | 0.00 | 0.00 | 0.00 | 87 | 1013.3 |
| 20260905235215 | 81 | 208 | 0.0 | 2.0 | 0.00 | 0.00 | 0.00 | 87 | 1013.4 |
| 20260905234711 | 81 | 290 | 1.0 | 2.0 | 0.00 | 0.00 | 0.00 | 86 | 1013.3 |
| 20260905234206 | 82 | 12 | 2.0 | 3.0 | 0.00 | 0.00 | 0.00 | 85 | 1013.3 |
| 20260905233701 | 82 | 226 | 0.0 | 0.0 | 0.00 | 0.00 | 0.00 | 85 | 1013.3 |
| 20260905233201 | 82 | 204 | 0.0 | 0.0 | 0.00 | 0.00 | 0.00 | 84 | 1013.3 |
| 20260905232656 | 82 | 236 | 0.0 | 0.0 | 0.00 | 0.00 | 0.00 | 84 | 1013.5 |
| 20260905232151 | 82 | 236 | 0.0 | 1.0 | 0.00 | 0.00 | 0.00 | 84 | 1013.5 |
| 20260905231647 | 82 | 236 | 0.0 | 1.0 | 0.00 | 0.00 | 0.00 | 84 | 1013.4 |
| 20260905231143 | 82 | 221 | 0.0 | 2.0 | 0.00 | 0.00 | 0.00 | 84 | 1013.4 |
| 20260905230638 | 82 | 223 | 0.0 | 1.0 | 0.00 | 0.00 | 0.00 | 84 | 1013.3 |
| 20260905230136 | 82 | 209 | 0.0 | 1.0 | 0.00 | 0.00 | 0.00 | 84 | 1013.4 |
| 20260905225637 | 82 | 236 | 1.0 | 1.0 | 0.00 | 0.00 | 0.00 | 83 | 1013.3 |
| 20260905225137 | 82 | 245 | 0.0 | 0.0 | 0.00 | 0.00 | 0.00 | 82 | 1013.3 |
| 20260905224636 | 82 | 239 | 1.0 | 2.0 | 0.00 | 0.00 | 0.00 | 82 | 1013.2 |
| 20260905224136 | 82 | 323 | 1.0 | 2.0 | 0.00 | 0.00 | 0.00 | 81 | 1013.2 |
| 20260905223633 | 82 | 335 | 2.0 | 4.0 | 0.00 | 0.00 | 0.00 | 80 | 1013.2 |
| 20260905223129 | 83 | 271 | 1.0 | 3.0 | 0.00 | 0.00 | 0.00 | 77 | 1013.3 |
| 20260905222624 | 83 | 214 | 0.0 | 1.0 | 0.00 | 0.00 | 0.00 | 76 | 1013.1 |
| 20260905222119 | 82 | 204 | 0.0 | 2.0 | 0.00 | 0.00 | 0.00 | 77 | 1013.0 |
| 20260905221615 | 82 | 338 | 3.0 | 3.0 | 0.00 | 0.00 | 0.00 | 77 | 1012.9 |
| 20260905221111 | 83 | 50 | 1.0 | 4.0 | 0.00 | 0.00 | 0.00 | 77 | 1012.6 |
| 20260905220607 | 84 | 173 | 4.0 | 7.0 | 0.00 | 0.00 | 0.00 | 76 | 1012.9 |
| 20260905215602 | 87 | 276 | 3.0 | 3.0 | 0.00 | 0.00 | 0.00 | 72 | 1013.1 |
| 20260905215058 | 87 | 277 | 3.0 | 4.0 | 0.00 | 0.00 | 0.00 | 70 | 1013.0 |
| 20260905214554 | 88 | 266 | 1.0 | 4.0 | 0.00 | 0.00 | 0.00 | 69 | 1012.7 |
| 20260905214048 | 89 | 211 | 2.0 | 7.0 | 0.00 | 0.00 | 0.00 | 69 | 1012.9 |
| 20260905213543 | 90 | 321 | 4.0 | 8.0 | 0.00 | 0.00 | 0.00 | 65 | 1012.7 |
| 20260905213040 | 94 | 169 | 3.0 | 10.0 | 0.00 | 0.00 | 0.00 | 62 | 1012.9 |
| 20260905212540 | 94 | 229 | 0.0 | 1.0 | 0.00 | 0.00 | 0.00 | 55 | 1012.6 |
| 20260905212039 | 94 | 218 | 0.0 | 1.0 | 0.00 | 0.00 | 0.00 | 55 | 1012.7 |
| 20260905211534 | 95 | 219 | 1.0 | 4.0 | 0.00 | 0.00 | 0.00 | 55 | 1012.5 |
| 20260905211030 | 95 | 231 | 0.0 | 2.0 | 0.00 | 0.00 | 0.00 | 55 | 1012.8 |
| 20260905210526 | 95 | 217 | 0.0 | 3.0 | 0.00 | 0.00 | 0.00 | 56 | 1012.6 |
| 20260905210025 | 94 | 227 | 0.0 | 1.0 | 0.00 | 0.00 | 0.00 | 54 | 1012.6 |
| 20260905205525 | 95 | 271 | 1.0 | 2.0 | 0.00 | 0.00 | 0.00 | 54 | 1012.8 |
| 20260905205024 | 95 | 232 | 2.0 | 2.0 | 0.00 | 0.00 | 0.00 | 54 | 1012.4 |
| 20260905204519 | 96 | 135 | 0.0 | 6.0 | 0.00 | 0.00 | 0.00 | 54 | 1012.6 |
| 20260905204014 | 96 | 217 | 1.0 | 2.0 | 0.00 | 0.00 | 0.00 | 53 | 1012.6 |
| 20260905203509 | 97 | 224 | 1.0 | 2.0 | 0.00 | 0.00 | 0.00 | 53 | 1012.7 |
| 20260905203004 | 97 | 211 | 1.0 | 3.0 | 0.00 | 0.00 | 0.00 | 54 | 1012.6 |
| 20260905202500 | 97 | 228 | 2.0 | 4.0 | 0.00 | 0.00 | 0.00 | 54 | 1012.6 |
| 20260905201955 | 97 | 217 | 1.0 | 2.0 | 0.00 | 0.00 | 0.00 | 55 | 1012.8 |
| 20260905201450 | 96 | 211 | 0.0 | 4.0 | 0.00 | 0.00 | 0.00 | 56 | 1012.9 |
| 20260905200949 | 97 | 231 | 2.0 | 3.0 | 0.00 | 0.00 | 0.00 | 56 | 1013.0 |
| 20260905200446 | 97 | 112 | 3.0 | 3.0 | 0.00 | 0.00 | 0.00 | 56 | 1013.1 |
| 20260905195944 | 96 | 286 | 2.0 | 3.0 | 0.00 | 0.00 | 0.00 | 56 | 1013.1 |
| 20260905195439 | 97 | 223 | 0.0 | 3.0 | 0.00 | 0.00 | 0.00 | 55 | 1013.2 |
| 20260905194935 | 96 | 230 | 0.0 | 1.0 | 0.00 | 0.00 | 0.00 | 55 | 1013.0 |
| 20260905194434 | 96 | 236 | 3.0 | 3.0 | 0.00 | 0.00 | 0.00 | 55 | 1013.0 |
| 20260905193929 | 97 | 230 | 1.0 | 2.0 | 0.00 | 0.00 | 0.00 | 55 | 1013.1 |
| 20260905193424 | 96 | 219 | 0.0 | 2.0 | 0.00 | 0.00 | 0.00 | 55 | 1013.1 |
| 20260905192919 | 96 | 233 | 1.0 | 2.0 | 0.00 | 0.00 | 0.00 | 55 | 1013.2 |
| 20260905192414 | 95 | 235 | 1.0 | 2.0 | 0.00 | 0.00 | 0.00 | 55 | 1013.5 |
| 20260905191915 | 94 | 257 | 2.0 | 2.0 | 0.00 | 0.00 | 0.00 | 58 | 1013.5 |
| 20260905191414 | 92 | 200 | 2.0 | 2.0 | 0.00 | 0.00 | 0.00 | 62 | 1013.8 |
| 20260905190914 | 92 | 272 | 2.0 | 3.0 | 0.00 | 0.00 | 0.00 | 62 | 1013.8 |
| 20260905190411 | 94 | 226 | 1.0 | 2.0 | 0.00 | 0.00 | 0.00 | 59 | 1014.0 |
| 20260905185910 | 94 | 227 | 1.0 | 6.0 | 0.00 | 0.00 | 0.00 | 56 | 1013.8 |
| 20260905185406 | 94 | 253 | 1.0 | 3.0 | 0.00 | 0.00 | 0.00 | 56 | 1013.8 |
| 20260905184904 | 94 | 274 | 2.0 | 2.0 | 0.00 | 0.00 | 0.00 | 55 | 1014.1 |
| 20260905184359 | 95 | 251 | 2.0 | 3.0 | 0.00 | 0.00 | 0.00 | 55 | 1014.0 |
| 20260905183857 | 94 | 229 | 0.0 | 2.0 | 0.00 | 0.00 | 0.00 | 58 | 1013.9 |
| 20260905183352 | 93 | 220 | 0.0 | 2.0 | 0.00 | 0.00 | 0.00 | 59 | 1014.1 |
| 20260905182847 | 93 | 241 | 1.0 | 3.0 | 0.00 | 0.00 | 0.00 | 57 | 1014.1 |
| 20260905182347 | 93 | 324 | 2.0 | 6.0 | 0.00 | 0.00 | 0.00 | 56 | 1014.2 |
| 20260905181842 | 93 | 304 | 1.0 | 3.0 | 0.00 | 0.00 | 0.00 | 58 | 1014.2 |
| 20260905181342 | 94 | 238 | 0.0 | 3.0 | 0.00 | 0.00 | 0.00 | 58 | 1014.5 |
| 20260905180841 | 93 | 217 | 0.0 | 0.0 | 0.00 | 0.00 | 0.00 | 58 | 1014.6 |
| 20260905180337 | 92 | 224 | 2.0 | 2.0 | 0.00 | 0.00 | 0.00 | 61 | 1014.7 |
| 20260905175831 | 93 | 309 | 2.0 | 4.0 | 0.00 | 0.00 | 0.00 | 64 | 1014.9 |
| 20260905175325 | 91 | 265 | 0.0 | 2.0 | 0.00 | 0.00 | 0.00 | 65 | 1015.1 |
| 20260905174820 | 90 | 196 | 0.0 | 1.0 | 0.00 | 0.00 | 0.00 | 68 | 1015.0 |
| 20260905174316 | 88 | 264 | 1.0 | 2.0 | 0.00 | 0.00 | 0.00 | 74 | 1015.1 |
| 20260905173812 | 88 | 264 | 1.0 | 2.0 | 0.00 | 0.00 | 0.00 | 74 | 1015.2 |
| 20260905173308 | 88 | 263 | 0.0 | 0.0 | 0.00 | 0.00 | 0.00 | 74 | 1015.5 |
| 20260905172808 | 88 | 263 | 0.0 | 0.0 | 0.00 | 0.00 | 0.00 | 76 | 1015.2 |
| 20260905172306 | 87 | 263 | 1.0 | 2.0 | 0.00 | 0.00 | 0.00 | 74 | 1015.4 |
| 20260905171802 | 88 | 263 | 0.0 | 1.0 | 0.00 | 0.00 | 0.00 | 73 | 1015.5 |
| 20260905171259 | 88 | 260 | 0.0 | 1.0 | 0.00 | 0.00 | 0.00 | 73 | 1015.5 |
| 20260905170755 | 88 | 245 | 1.0 | 1.0 | 0.00 | 0.00 | 0.00 | 73 | 1015.5 |
| 20260905170250 | 89 | 229 | 0.0 | 0.0 | 0.00 | 0.00 | 0.00 | 72 | 1015.5 |
| 20260905165749 | 90 | 217 | 0.0 | 0.0 | 0.00 | 0.00 | 0.00 | 71 | 1015.6 |
| 20260905165246 | 90 | 215 | 0.0 | 0.0 | 0.00 | 0.00 | 0.00 | 69 | 1015.7 |
| 20260905164745 | 91 | 211 | 0.0 | 3.0 | 0.00 | 0.00 | 0.00 | 67 | 1015.5 |
| 20260905164240 | 91 | 242 | 2.0 | 2.0 | 0.00 | 0.00 | 0.00 | 67 | 1015.7 |
| 20260905163736 | 92 | 222 | 0.0 | 1.0 | 0.00 | 0.00 | 0.00 | 68 | 1015.7 |
| 20260905163232 | 92 | 176 | 0.0 | 3.0 | 0.00 | 0.00 | 0.00 | 68 | 1015.6 |
| 20260905162728 | 91 | 233 | 1.0 | 2.0 | 0.00 | 0.00 | 0.00 | 70 | 1015.7 |
| 20260905162227 | 91 | 191 | 2.0 | 3.0 | 0.00 | 0.00 | 0.00 | 68 | 1015.8 |
| 20260905161722 | 91 | 173 | 2.0 | 3.0 | 0.00 | 0.00 | 0.00 | 69 | 1015.8 |
| 20260905161221 | 93 | 217 | 0.0 | 3.0 | 0.00 | 0.00 | 0.00 | 68 | 1015.7 |
| 20260905160720 | 92 | 135 | 2.0 | 2.0 | 0.00 | 0.00 | 0.00 | 66 | 1015.7 |
| 20260905160219 | 90 | 223 | 0.0 | 2.0 | 0.00 | 0.00 | 0.00 | 74 | 1015.7 |
| 20260905155714 | 88 | 221 | 1.0 | 3.0 | 0.00 | 0.00 | 0.00 | 72 | 1015.8 |
| 20260905155213 | 87 | 34 | 2.0 | 2.0 | 0.00 | 0.00 | 0.00 | 77 | 1015.7 |
| 20260905154707 | 88 | 312 | 2.0 | 3.0 | 0.00 | 0.00 | 0.00 | 74 | 1015.8 |
| 20260905154203 | 90 | 24 | 1.0 | 3.0 | 0.00 | 0.00 | 0.00 | 70 | 1015.9 |
| 20260905153659 | 90 | 215 | 0.0 | 2.0 | 0.00 | 0.00 | 0.00 | 75 | 1015.9 |
| 20260905153154 | 89 | 209 | 2.0 | 2.0 | 0.00 | 0.00 | 0.00 | 73 | 1015.7 |
| 20260905152649 | 88 | 200 | 1.0 | 2.0 | 0.00 | 0.00 | 0.00 | 77 | 1015.9 |
| 20260905152143 | 88 | 222 | 0.0 | 1.0 | 0.00 | 0.00 | 0.00 | 77 | 1015.6 |
| 20260905151638 | 88 | 224 | 0.0 | 2.0 | 0.00 | 0.00 | 0.00 | 77 | 1015.8 |
| 20260905151134 | 87 | 222 | 0.0 | 1.0 | 0.00 | 0.00 | 0.00 | 78 | 1015.7 |
| 20260905150629 | 88 | 236 | 2.0 | 3.0 | 0.00 | 0.00 | 0.00 | 78 | 1015.8 |
| 20260905150127 | 87 | 219 | 1.0 | 2.0 | 0.00 | 0.00 | 0.00 | 79 | 1015.7 |
| 20260905145626 | 87 | 219 | 0.0 | 1.0 | 0.00 | 0.00 | 0.00 | 83 | 1015.6 |
| 20260905145125 | 87 | 211 | 0.0 | 1.0 | 0.00 | 0.00 | 0.00 | 82 | 1015.7 |
| 20260905144620 | 86 | 216 | 1.0 | 2.0 | 0.00 | 0.00 | 0.00 | 86 | 1015.7 |
| 20260905144119 | 85 | 220 | 1.0 | 2.0 | 0.00 | 0.00 | 0.00 | 87 | 1015.8 |
| 20260905143614 | 85 | 227 | 1.0 | 2.0 | 0.00 | 0.00 | 0.00 | 86 | 1015.6 |
| 20260905143109 | 85 | 208 | 0.0 | 0.0 | 0.00 | 0.00 | 0.00 | 88 | 1015.5 |
| 20260905142608 | 85 | 214 | 0.0 | 2.0 | 0.00 | 0.00 | 0.00 | 88 | 1015.5 |
| 20260905142107 | 84 | 225 | 0.0 | 0.0 | 0.00 | 0.00 | 0.00 | 89 | 1015.6 |
| 20260905141607 | 84 | 185 | 0.0 | 0.0 | 0.00 | 0.00 | 0.00 | 89 | 1015.6 |
| 20260905141104 | 82 | 186 | 0.0 | 1.0 | 0.00 | 0.00 | 0.00 | 95 | 1015.6 |
| 20260905140559 | 81 | 239 | 0.0 | 0.0 | 0.00 | 0.00 | 0.00 | 99 | 1015.7 |
| 20260905140058 | 80 | 201 | 0.0 | 0.0 | 0.00 | 0.00 | 0.00 | 99 | 1015.7 |
| 20260905135553 | 79 | 247 | 0.0 | 0.0 | 0.00 | 0.00 | 0.00 | 99 | 1015.7 |
| 20260905135053 | 79 | 208 | 0.0 | 0.0 | 0.00 | 0.00 | 0.00 | 99 | 1015.5 |
| 20260905134548 | 78 | 219 | 0.0 | 0.0 | 0.00 | 0.00 | 0.00 | 99 | 1015.7 |
| 20260905134047 | 78 | 212 | 0.0 | 0.0 | 0.00 | 0.00 | 0.00 | 99 | 1015.5 |
| 20260905133543 | 77 | 236 | 0.0 | 0.0 | 0.00 | 0.00 | 0.00 | 99 | 1015.5 |
| 20260905133042 | 77 | 209 | 0.0 | 0.0 | 0.00 | 0.00 | 0.00 | 99 | 1015.6 |
| 20260905132542 | 77 | 219 | 0.0 | 0.0 | 0.00 | 0.00 | 0.00 | 99 | 1015.6 |
| 20260905132037 | 76 | 210 | 0.0 | 0.0 | 0.00 | 0.00 | 0.00 | 99 | 1015.4 |
| 20260905131532 | 76 | 210 | 0.0 | 0.0 | 0.00 | 0.00 | 0.00 | 99 | 1015.6 |
| 20260905131028 | 76 | 208 | 0.0 | 0.0 | 0.00 | 0.00 | 0.00 | 99 | 1015.3 |
| 20260905130526 | 75 | 216 | 0.0 | 0.0 | 0.00 | 0.00 | 0.00 | 99 | 1015.4 |
| 20260905130022 | 75 | 216 | 0.0 | 0.0 | 0.00 | 0.00 | 0.00 | 99 | 1015.4 |
| 20260905125521 | 75 | 216 | 0.0 | 0.0 | 0.00 | 0.00 | 0.00 | 99 | 1015.4 |
| 20260905125017 | 74 | 216 | 0.0 | 0.0 | 0.00 | 0.00 | 0.00 | 99 | 1015.2 |
| 20260905124513 | 74 | 216 | 0.0 | 0.0 | 0.00 | 0.00 | 0.00 | 99 | 1015.1 |
| 20260905124009 | 74 | 216 | 0.0 | 0.0 | 0.00 | 0.00 | 0.00 | 99 | 1015.0 |
| 20260905123505 | 74 | 217 | 0.0 | 0.0 | 0.00 | 0.00 | 0.00 | 99 | 1014.9 |
| 20260905123001 | 74 | 217 | 0.0 | 0.0 | 0.00 | 0.00 | 0.00 | 99 | 1015.1 |
| 20260905122500 | 74 | 217 | 0.0 | 0.0 | 0.00 | 0.00 | 0.00 | 99 | 1015.0 |
| 20260905121955 | 74 | 217 | 0.0 | 0.0 | 0.00 | 0.00 | 0.00 | 99 | 1014.9 |
| 20260905121451 | 73 | 217 | 0.0 | 0.0 | 0.00 | 0.00 | 0.00 | 99 | 1014.8 |
| 20260905120950 | 73 | 217 | 0.0 | 0.0 | 0.00 | 0.00 | 0.00 | 99 | 1014.6 |
| 20260905120445 | 73 | 217 | 0.0 | 0.0 | 0.00 | 0.00 | 0.00 | 99 | 1014.8 |
| 20260905115940 | 73 | 217 | 0.0 | 0.0 | 0.00 | 0.00 | 0.00 | 99 | 1014.5 |
| 20260905115439 | 73 | 217 | 0.0 | 0.0 | 0.00 | 0.00 | 0.00 | 99 | 1014.5 |
| 20260905114935 | 73 | 217 | 0.0 | 0.0 | 0.00 | 0.00 | 0.00 | 99 | 1014.5 |
| 20260905114434 | 73 | 217 | 0.0 | 0.0 | 0.00 | 0.00 | 0.00 | 99 | 1014.6 |
| 20260905113933 | 74 | 217 | 0.0 | 0.0 | 0.00 | 0.00 | 0.00 | 99 | 1014.6 |
| 20260905113428 | 74 | 217 | 0.0 | 0.0 | 0.00 | 0.00 | 0.00 | 99 | 1014.5 |
| 20260905112924 | 73 | 217 | 0.0 | 0.0 | 0.00 | 0.00 | 0.00 | 99 | 1014.5 |
| 20260905112419 | 74 | 217 | 0.0 | 0.0 | 0.00 | 0.00 | 0.00 | 99 | 1014.3 |
| 20260905111914 | 74 | 217 | 0.0 | 0.0 | 0.00 | 0.00 | 0.00 | 99 | 1014.4 |
| 20260905111413 | 74 | 217 | 0.0 | 0.0 | 0.00 | 0.00 | 0.00 | 99 | 1014.4 |
| 20260905110909 | 74 | 217 | 0.0 | 0.0 | 0.00 | 0.00 | 0.00 | 99 | 1014.3 |
| 20260905110408 | 74 | 217 | 0.0 | 0.0 | 0.00 | 0.00 | 0.00 | 99 | 1014.1 |
| 20260905105903 | 74 | 217 | 0.0 | 0.0 | 0.00 | 0.00 | 0.00 | 99 | 1014.2 |
| 20260905105402 | 74 | 217 | 0.0 | 0.0 | 0.00 | 0.00 | 0.00 | 99 | 1014.0 |
| 20260905104901 | 74 | 217 | 0.0 | 0.0 | 0.00 | 0.00 | 0.00 | 99 | 1013.9 |
| 20260905104358 | 74 | 217 | 0.0 | 0.0 | 0.00 | 0.00 | 0.00 | 99 | 1013.9 |
| 20260905103858 | 74 | 217 | 0.0 | 0.0 | 0.00 | 0.00 | 0.00 | 99 | 1014.0 |
| 20260905103354 | 74 | 217 | 0.0 | 0.0 | 0.00 | 0.00 | 0.00 | 99 | 1014.0 |
| 20260905102849 | 74 | 217 | 0.0 | 0.0 | 0.00 | 0.00 | 0.00 | 99 | 1014.0 |
| 20260905102346 | 74 | 217 | 0.0 | 0.0 | 0.00 | 0.00 | 0.00 | 99 | 1014.1 |
| 20260905101846 | 74 | 217 | 0.0 | 0.0 | 0.00 | 0.00 | 0.00 | 99 | 1014.0 |
| 20260905101345 | 74 | 217 | 0.0 | 0.0 | 0.00 | 0.00 | 0.00 | 99 | 1014.1 |
| 20260905100845 | 74 | 217 | 0.0 | 0.0 | 0.00 | 0.00 | 0.00 | 99 | 1014.0 |
| 20260905100341 | 74 | 217 | 0.0 | 0.0 | 0.00 | 0.00 | 0.00 | 99 | 1013.9 |
| 20260905095840 | 74 | 217 | 0.0 | 0.0 | 0.00 | 0.00 | 0.00 | 99 | 1013.8 |
| 20260905095335 | 74 | 217 | 0.0 | 0.0 | 0.00 | 0.00 | 0.00 | 99 | 1014.0 |
| 20260905094830 | 74 | 217 | 0.0 | 0.0 | 0.00 | 0.00 | 0.00 | 99 | 1014.1 |
| 20260905094325 | 74 | 217 | 0.0 | 0.0 | 0.00 | 0.00 | 0.00 | 99 | 1014.1 |
| 20260905093824 | 74 | 217 | 0.0 | 0.0 | 0.00 | 0.00 | 0.00 | 99 | 1014.1 |
| 20260905093320 | 74 | 217 | 0.0 | 0.0 | 0.00 | 0.00 | 0.00 | 99 | 1014.0 |
| 20260905092816 | 74 | 217 | 0.0 | 0.0 | 0.00 | 0.00 | 0.00 | 99 | 1014.0 |
| 20260905092315 | 74 | 217 | 0.0 | 0.0 | 0.00 | 0.00 | 0.00 | 99 | 1013.8 |
| 20260905091810 | 75 | 217 | 0.0 | 0.0 | 0.00 | 0.00 | 0.00 | 99 | 1014.0 |
| 20260905091311 | 75 | 217 | 0.0 | 0.0 | 0.00 | 0.00 | 0.00 | 99 | 1014.1 |
| 20260905090809 | 74 | 217 | 0.0 | 0.0 | 0.00 | 0.00 | 0.00 | 99 | 1013.8 |
| 20260905090305 | 75 | 217 | 0.0 | 0.0 | 0.00 | 0.00 | 0.00 | 99 | 1013.9 |
| 20260905085804 | 75 | 217 | 0.0 | 0.0 | 0.00 | 0.00 | 0.00 | 99 | 1014.0 |
| 20260905085306 | 75 | 217 | 0.0 | 0.0 | 0.00 | 0.00 | 0.00 | 99 | 1014.0 |
| 20260905084800 | 75 | 217 | 0.0 | 0.0 | 0.00 | 0.00 | 0.00 | 99 | 1014.0 |
| 20260905084259 | 74 | 217 | 0.0 | 0.0 | 0.00 | 0.00 | 0.00 | 99 | 1013.9 |
| 20260905083754 | 74 | 217 | 0.0 | 0.0 | 0.00 | 0.00 | 0.00 | 99 | 1013.7 |
| 20260905083250 | 75 | 217 | 0.0 | 0.0 | 0.00 | 0.00 | 0.00 | 99 | 1014.0 |
| 20260905082745 | 75 | 217 | 0.0 | 0.0 | 0.00 | 0.00 | 0.00 | 99 | 1013.8 |
| 20260905082242 | 75 | 217 | 0.0 | 0.0 | 0.00 | 0.00 | 0.00 | 99 | 1013.9 |
| 20260905081735 | 75 | 217 | 0.0 | 0.0 | 0.00 | 0.00 | 0.00 | 99 | 1013.8 |
| 20260905081231 | 75 | 217 | 0.0 | 0.0 | 0.00 | 0.00 | 0.00 | 99 | 1013.8 |
| 20260905080724 | 75 | 217 | 0.0 | 0.0 | 0.00 | 0.00 | 0.00 | 99 | 1013.9 |
| 20260905080224 | 75 | 217 | 0.0 | 0.0 | 0.00 | 0.00 | 0.00 | 99 | 1013.8 |
| 20260905075723 | 75 | 217 | 0.0 | 0.0 | 0.00 | 0.00 | 0.00 | 99 | 1013.9 |
| 20260905075223 | 75 | 217 | 0.0 | 0.0 | 0.00 | 0.00 | 0.00 | 99 | 1013.9 |
| 20260905074722 | 75 | 216 | 0.0 | 0.0 | 0.00 | 0.00 | 0.00 | 99 | 1013.9 |
| 20260905074218 | 75 | 217 | 0.0 | 0.0 | 0.00 | 0.00 | 0.00 | 99 | 1013.9 |
| 20260905073713 | 75 | 216 | 0.0 | 0.0 | 0.00 | 0.00 | 0.00 | 99 | 1014.2 |
| 20260905073208 | 75 | 216 | 0.0 | 0.0 | 0.00 | 0.00 | 0.00 | 99 | 1014.1 |
| 20260905072708 | 75 | 216 | 0.0 | 0.0 | 0.00 | 0.00 | 0.00 | 99 | 1014.0 |
| 20260905072203 | 75 | 216 | 0.0 | 0.0 | 0.00 | 0.00 | 0.00 | 99 | 1014.2 |
| 20260905071700 | 75 | 216 | 0.0 | 0.0 | 0.00 | 0.00 | 0.00 | 99 | 1014.3 |
| 20260905071156 | 75 | 216 | 0.0 | 0.0 | 0.00 | 0.00 | 0.00 | 99 | 1014.4 |
| 20260905070651 | 75 | 216 | 0.0 | 0.0 | 0.00 | 0.00 | 0.00 | 99 | 1014.5 |
| 20260905070147 | 75 | 216 | 0.0 | 0.0 | 0.00 | 0.00 | 0.00 | 99 | 1014.2 |
| 20260905065645 | 75 | 216 | 0.0 | 0.0 | 0.00 | 0.00 | 0.00 | 99 | 1014.3 |
| 20260905065145 | 75 | 216 | 0.0 | 0.0 | 0.00 | 0.00 | 0.00 | 99 | 1014.4 |
| 20260905064640 | 75 | 216 | 0.0 | 0.0 | 0.00 | 0.00 | 0.00 | 99 | 1014.6 |
| 20260905064136 | 75 | 216 | 0.0 | 0.0 | 0.00 | 0.00 | 0.00 | 99 | 1014.6 |
| 20260905063634 | 75 | 216 | 0.0 | 0.0 | 0.00 | 0.00 | 0.00 | 99 | 1014.4 |
| 20260905063131 | 75 | 216 | 0.0 | 0.0 | 0.00 | 0.00 | 0.00 | 99 | 1014.4 |
| 20260905062626 | 75 | 216 | 0.0 | 0.0 | 0.00 | 0.00 | 0.00 | 99 | 1014.5 |
| 20260905062125 | 75 | 216 | 0.0 | 0.0 | 0.00 | 0.00 | 0.00 | 99 | 1014.6 |
| 20260905061620 | 75 | 216 | 0.0 | 0.0 | 0.00 | 0.00 | 0.00 | 98 | 1014.6 |
| 20260905061120 | 75 | 216 | 0.0 | 0.0 | 0.00 | 0.00 | 0.00 | 98 | 1014.4 |
| 20260905060616 | 75 | 216 | 0.0 | 0.0 | 0.00 | 0.00 | 0.00 | 98 | 1014.5 |
| 20260905060112 | 75 | 216 | 0.0 | 0.0 | 0.00 | 0.00 | 0.00 | 98 | 1014.5 |
| 20260905055610 | 75 | 216 | 0.0 | 0.0 | 0.00 | 0.00 | 0.00 | 98 | 1014.4 |
| 20260905055105 | 76 | 216 | 0.0 | 0.0 | 0.00 | 0.00 | 0.00 | 98 | 1014.4 |
| 20260905054601 | 76 | 216 | 0.0 | 0.0 | 0.00 | 0.00 | 0.00 | 98 | 1014.4 |
| 20260905054056 | 76 | 216 | 0.0 | 0.0 | 0.00 | 0.00 | 0.00 | 98 | 1014.5 |
| 20260905053555 | 76 | 216 | 0.0 | 0.0 | 0.00 | 0.00 | 0.00 | 98 | 1014.4 |
| 20260905053052 | 76 | 216 | 0.0 | 0.0 | 0.00 | 0.00 | 0.00 | 98 | 1014.4 |
| 20260905052550 | 76 | 216 | 0.0 | 0.0 | 0.00 | 0.00 | 0.00 | 98 | 1014.6 |
| 20260905052045 | 76 | 216 | 0.0 | 0.0 | 0.00 | 0.00 | 0.00 | 97 | 1014.5 |
| 20260905051541 | 76 | 216 | 0.0 | 0.0 | 0.00 | 0.00 | 0.00 | 97 | 1014.6 |
| 20260905051038 | 76 | 216 | 0.0 | 0.0 | 0.00 | 0.00 | 0.00 | 97 | 1014.6 |
| 20260905050533 | 76 | 216 | 0.0 | 0.0 | 0.00 | 0.00 | 0.00 | 97 | 1014.7 |
| 20260905050031 | 76 | 216 | 0.0 | 0.0 | 0.00 | 0.77 | 0.77 | 97 | 1014.7 |
| 20260905045525 | 77 | 216 | 0.0 | 0.0 | 0.00 | 0.77 | 0.77 | 97 | 1014.8 |
| 20260905045020 | 76 | 216 | 0.0 | 0.0 | 0.00 | 0.77 | 0.77 | 96 | 1014.7 |
| 20260905044521 | 76 | 216 | 0.0 | 0.0 | 0.00 | 0.77 | 0.77 | 96 | 1014.6 |
| 20260905044020 | 77 | 216 | 0.0 | 0.0 | 0.00 | 0.77 | 0.77 | 96 | 1014.6 |
| 20260905043520 | 77 | 216 | 0.0 | 0.0 | 0.00 | 0.77 | 0.77 | 96 | 1014.5 |
| 20260905043015 | 77 | 216 | 0.0 | 0.0 | 0.00 | 0.77 | 0.77 | 96 | 1014.5 |
| 20260905042508 | 77 | 216 | 0.0 | 0.0 | 0.00 | 0.77 | 0.77 | 96 | 1014.7 |
| 20260905042004 | 77 | 216 | 0.0 | 0.0 | 0.00 | 0.77 | 0.77 | 96 | 1014.5 |
| 20260905041500 | 77 | 216 | 0.0 | 0.0 | 0.00 | 0.77 | 0.77 | 96 | 1014.5 |
| 20260905040955 | 77 | 216 | 0.0 | 0.0 | 0.00 | 0.77 | 0.77 | 96 | 1014.6 |
| 20260905040454 | 77 | 216 | 0.0 | 0.0 | 0.00 | 0.77 | 0.77 | 95 | 1014.8 |
| 20260905035953 | 77 | 216 | 0.0 | 0.0 | 0.00 | 0.77 | 0.77 | 95 | 1014.8 |
| 20260905035448 | 77 | 216 | 0.0 | 0.0 | 0.00 | 0.77 | 0.77 | 95 | 1014.7 |
| 20260905034946 | 77 | 216 | 0.0 | 0.0 | 0.00 | 0.77 | 0.77 | 95 | 1014.8 |
| 20260905034441 | 77 | 216 | 0.0 | 0.0 | 0.00 | 0.77 | 0.77 | 94 | 1014.6 |
| 20260905033940 | 77 | 216 | 0.0 | 0.0 | 0.00 | 0.77 | 0.77 | 94 | 1014.8 |
| 20260905033440 | 78 | 217 | 0.0 | 0.0 | 0.00 | 0.77 | 0.77 | 94 | 1014.9 |
| 20260905032934 | 78 | 216 | 0.0 | 0.0 | 0.00 | 0.77 | 0.77 | 94 | 1014.8 |
| 20260905032430 | 78 | 216 | 0.0 | 0.0 | 0.00 | 0.77 | 0.77 | 94 | 1014.7 |
| 20260905031924 | 78 | 216 | 0.0 | 0.0 | 0.00 | 0.77 | 0.77 | 94 | 1014.8 |
| 20260905031421 | 78 | 216 | 0.0 | 0.0 | 0.00 | 0.77 | 0.77 | 93 | 1014.8 |
| 20260905030916 | 78 | 216 | 0.0 | 0.0 | 0.00 | 0.77 | 0.77 | 92 | 1015.0 |
| 20260905030411 | 78 | 216 | 0.0 | 0.0 | 0.00 | 0.77 | 0.77 | 92 | 1014.8 |
| 20260905025910 | 78 | 216 | 0.0 | 0.0 | 0.00 | 0.77 | 0.77 | 92 | 1014.8 |
| 20260905025405 | 79 | 216 | 0.0 | 0.0 | 0.00 | 0.77 | 0.77 | 92 | 1014.7 |
| 20260905024902 | 79 | 216 | 0.0 | 0.0 | 0.00 | 0.77 | 0.77 | 90 | 1014.8 |
| 20260905024356 | 79 | 216 | 0.0 | 0.0 | 0.00 | 0.77 | 0.77 | 90 | 1014.7 |
| 20260905023851 | 79 | 216 | 0.0 | 0.0 | 0.00 | 0.77 | 0.77 | 90 | 1014.6 |
| 20260905023342 | 79 | 216 | 0.0 | 0.0 | 0.00 | 0.77 | 0.77 | 90 | 1014.7 |
| 20260905022840 | 79 | 216 | 0.0 | 0.0 | 0.00 | 0.77 | 0.77 | 90 | 1014.6 |
| 20260905022336 | 80 | 216 | 0.0 | 0.0 | 0.00 | 0.77 | 0.77 | 90 | 1014.6 |
| 20260905021835 | 80 | 216 | 0.0 | 0.0 | 0.00 | 0.77 | 0.77 | 89 | 1014.6 |
| 20260905021331 | 80 | 216 | 0.0 | 0.0 | 0.00 | 0.77 | 0.77 | 88 | 1014.5 |
| 20260905020826 | 80 | 216 | 0.0 | 0.0 | 0.00 | 0.77 | 0.77 | 87 | 1014.4 |
| 20260905020321 | 81 | 216 | 0.0 | 0.0 | 0.00 | 0.77 | 0.77 | 87 | 1014.3 |
| 20260905015820 | 81 | 202 | 0.0 | 1.0 | 0.00 | 0.77 | 0.77 | 86 | 1014.2 |
| 20260905015319 | 81 | 201 | 0.0 | 2.0 | 0.00 | 0.77 | 0.77 | 87 | 1014.3 |
| 20260905014819 | 81 | 203 | 1.0 | 1.0 | 0.00 | 0.77 | 0.77 | 87 | 1014.2 |
| 20260905014314 | 80 | 166 | 0.0 | 0.0 | 0.00 | 0.77 | 0.77 | 88 | 1014.1 |
| 20260905013809 | 80 | 203 | 0.0 | 0.0 | 0.00 | 0.77 | 0.77 | 90 | 1014.2 |
| 20260905013306 | 80 | 217 | 0.0 | 0.0 | 0.00 | 0.77 | 0.77 | 91 | 1014.2 |